Date String (YYYY-MM-DD hh:mm:ss) UTC,Instrument flags,Ambient pressure (hPa),Sample flow (lpm),Bypass flow (lpm),Sample temperature (°C),Ambient temperature (°C),ASC tube jacket temperature (°C),LED temperature (°C),Box temperature (°C),Sample RH (%),Span deviation,Mass concentration (μg/m³),Mass concentration (μg/m³),Mass concentration (μg/m³)
DateTimeUTC,F1_M11,P_M11,Q1_M11,Q2_M11,T1_M11,T2_M11,T3_M11,T4_M11,T5_M11,U1_M11,ZSPAN_M11,X0_M11,X2_M11,X1_M11
2022-05-13 03:00:00,,0824.2,5.01,0.00,29.8,28.9,00.0,38.8,31.5,05.3,0000.0,0007.56,0002.62,0001.21
2022-05-13 03:01:00,,0824.2,5.00,0.00,29.8,28.9,00.0,38.8,31.5,05.2,0000.0,0007.80,0002.60,0001.20
2022-05-13 03:02:00,,0824.3,5.01,0.00,29.8,28.9,00.0,38.8,31.5,05.2,0000.0,0008.21,0002.52,0001.19
2022-05-13 03:03:00,,0824.3,4.99,0.00,29.8,28.9,00.0,38.8,31.5,05.3,0000.0,0008.25,0002.54,0001.20
2022-05-13 03:04:00,,0824.3,5.00,0.00,29.8,28.9,00.0,38.8,31.5,05.3,0000.0,0008.18,0002.51,0001.20
2022-05-13 03:05:00,,0824.3,5.01,0.00,29.8,28.9,00.0,38.8,31.5,05.2,0000.0,0008.08,0002.42,0001.21
2022-05-13 03:06:00,,0824.3,5.00,0.00,29.8,28.9,00.0,38.8,31.5,05.3,0000.0,0007.88,0002.35,0001.20
2022-05-13 03:07:00,,0824.4,4.99,0.00,29.8,28.9,00.0,38.8,31.5,05.4,0000.0,0008.27,0002.36,0001.19
2022-05-13 03:08:00,,0824.3,5.00,0.00,29.8,28.9,00.0,38.8,31.5,05.3,0000.0,0007.78,0002.33,0001.20
2022-05-13 03:09:00,,0824.3,5.00,0.00,29.8,28.9,00.0,38.8,31.5,05.3,0000.0,0007.51,0002.31,0001.20
2022-05-13 03:10:00,,0824.3,5.00,0.00,29.8,28.9,00.0,38.8,31.4,05.3,0000.0,0007.54,0002.34,0001.20
2022-05-13 03:11:00,,0824.3,5.00,0.00,29.8,28.9,00.0,38.8,31.5,05.3,0000.0,0008.00,0002.38,0001.20
2022-05-13 03:12:00,,0824.3,4.99,0.00,29.8,28.9,00.0,38.8,31.5,05.3,0000.0,0008.84,0002.46,0001.22
2022-05-13 03:13:00,,0824.3,5.01,0.00,29.8,28.9,00.0,38.8,31.5,05.3,0000.0,0008.00,0002.49,0001.23
2022-05-13 03:14:00,,0824.3,5.00,0.00,29.8,28.9,00.0,38.8,31.5,05.3,0000.0,0008.42,0002.50,0001.23
2022-05-13 03:15:00,,0824.3,5.01,0.00,29.8,28.9,00.0,38.8,31.5,05.3,0000.0,0008.61,0002.52,0001.24
2022-05-13 03:16:00,,0824.3,5.00,0.00,29.8,28.9,00.0,38.8,31.5,05.4,0000.0,0009.19,0002.55,0001.25
2022-05-13 03:17:00,,0824.3,5.00,0.00,29.8,28.9,00.0,38.8,31.5,05.3,0000.0,0009.29,0002.65,0001.26
2022-05-13 03:18:00,,0824.3,5.01,0.00,29.8,28.9,00.0,38.8,31.5,05.4,0000.0,0008.81,0002.56,0001.27
2022-05-13 03:19:00,,0824.3,4.98,0.00,29.8,28.9,00.0,38.8,31.5,05.4,0000.0,0008.54,0002.49,0001.26
2022-05-13 03:20:00,,0824.3,5.00,0.00,29.8,28.9,00.0,38.8,31.5,05.5,0000.0,0008.56,0002.53,0001.26
2022-05-13 03:21:00,,0824.3,5.00,0.00,29.8,28.9,00.0,38.8,31.5,05.4,0000.0,0008.68,0002.61,0001.26
2022-05-13 03:22:00,,0824.2,4.99,0.00,29.8,28.9,00.0,38.8,31.5,05.4,0000.0,0008.60,0002.62,0001.27
2022-05-13 03:23:00,,0824.2,5.01,0.00,29.8,28.9,00.0,38.8,31.5,05.4,0000.0,0008.23,0002.54,0001.26
2022-05-13 03:24:00,,0824.1,5.00,0.00,29.8,28.8,00.0,38.8,31.4,05.4,0000.0,0008.34,0002.54,0001.25
2022-05-13 03:25:00,,0824.2,5.00,0.00,29.8,28.8,00.0,38.8,31.5,05.3,0000.0,0007.96,0002.55,0001.26
2022-05-13 03:26:00,,0824.2,5.02,0.00,29.7,28.8,00.0,38.8,31.4,05.4,0000.0,0007.99,0002.53,0001.25
2022-05-13 03:27:00,,0824.2,5.00,0.00,29.7,28.8,00.0,38.8,31.4,05.4,0000.0,0007.74,0002.53,0001.25
2022-05-13 03:28:00,,0824.2,4.99,0.00,29.7,28.8,00.0,38.8,31.4,05.5,0000.0,0007.89,0002.52,0001.24
2022-05-13 03:29:00,,0824.3,5.00,0.00,29.7,28.8,00.0,38.7,31.4,05.5,0000.0,0007.94,0002.55,0001.24
2022-05-13 03:30:00,,0824.3,5.00,0.00,29.7,28.8,00.0,38.7,31.4,05.6,0000.0,0008.85,0002.58,0001.23
2022-05-13 03:31:00,,0824.3,4.99,0.00,29.7,28.8,00.0,38.7,31.3,05.5,0000.0,0008.86,0002.52,0001.21
2022-05-13 03:32:00,,0824.3,5.00,0.00,29.7,28.8,00.0,38.7,31.3,05.5,0000.0,0009.34,0002.42,0001.19
2022-05-13 03:33:00,,0824.3,5.00,0.00,29.7,28.8,00.0,38.7,31.3,05.6,0000.0,0009.69,0002.38,0001.18
2022-05-13 03:34:00,,0824.3,4.99,0.00,29.7,28.8,00.0,38.7,31.4,05.7,0000.0,0009.44,0002.43,0001.17
2022-05-13 03:35:00,,0824.2,5.00,0.00,29.7,28.8,00.0,38.7,31.4,05.7,0000.0,0009.44,0002.41,0001.16
2022-05-13 03:36:00,,0824.2,5.00,0.00,29.6,28.8,00.0,38.7,31.3,05.7,0000.0,0009.38,0002.38,0001.14
2022-05-13 03:37:00,,0824.2,4.99,0.00,29.6,28.8,00.0,38.7,31.3,05.7,0000.0,0009.28,0002.38,0001.13
2022-05-13 03:38:00,,0824.2,4.99,0.00,29.6,28.8,00.0,38.7,31.3,05.7,0000.0,0008.98,0002.40,0001.12
2022-05-13 03:39:00,,0824.2,5.01,0.00,29.6,28.8,00.0,38.7,31.3,05.8,0000.0,0008.72,0002.43,0001.12
2022-05-13 03:40:00,,0824.1,4.99,0.00,29.6,28.8,00.0,38.7,31.3,05.8,0000.0,0008.75,0002.45,0001.13
2022-05-13 03:41:00,,0824.2,4.99,0.00,29.6,28.8,00.0,38.7,31.3,05.9,0000.0,0008.13,0002.47,0001.13
2022-05-13 03:42:00,,0824.2,5.01,0.00,29.5,28.7,00.0,38.6,31.2,05.8,0000.0,0007.90,0002.53,0001.14
2022-05-13 03:43:00,,0824.2,5.00,0.00,29.5,28.7,00.0,38.6,31.2,05.8,0000.0,0007.00,0002.51,0001.14
2022-05-13 03:44:00,,0824.1,4.99,0.00,29.5,28.7,00.0,38.6,31.2,05.9,0000.0,0006.74,0002.50,0001.13
2022-05-13 03:45:00,,0824.1,5.01,0.00,29.5,28.7,00.0,38.6,31.2,05.8,0000.0,0006.31,0002.43,0001.13
2022-05-13 03:46:00,,0824.1,5.01,0.00,29.5,28.7,00.0,38.6,31.2,05.9,0000.0,0006.40,0002.42,0001.13
2022-05-13 03:47:00,,0824.2,4.99,0.00,29.4,28.6,00.0,38.6,31.1,06.0,0000.0,0006.82,0002.48,0001.13
2022-05-13 03:48:00,,0824.2,5.01,0.00,29.4,28.6,00.0,38.6,31.1,06.0,0000.0,0007.01,0002.55,0001.13
2022-05-13 03:49:00,,0824.1,5.00,0.00,29.4,28.6,00.0,38.5,31.1,06.0,0000.0,0007.03,0002.55,0001.12
2022-05-13 03:50:00,,0824.1,4.98,0.00,29.4,28.6,00.0,38.5,31.1,06.0,0000.0,0006.89,0002.47,0001.11
2022-05-13 03:51:00,,0824.1,5.01,0.00,29.4,28.6,00.0,38.5,31.0,06.1,0000.0,0006.85,0002.42,0001.09
2022-05-13 03:52:00,,0824.0,5.01,0.00,29.4,28.5,00.0,38.5,31.0,06.1,0000.0,0007.58,0002.42,0001.07
2022-05-13 03:53:00,,0824.0,4.99,0.00,29.3,28.5,00.0,38.5,31.0,06.1,0000.0,0007.81,0002.45,0001.07
2022-05-13 03:54:00,,0824.1,4.99,0.00,29.3,28.5,00.0,38.5,31.0,06.1,0000.0,0008.29,0002.52,0001.08
2022-05-13 03:55:00,,0824.1,5.02,0.00,29.3,28.5,00.0,38.4,31.0,06.0,0000.0,0008.15,0002.57,0001.08
2022-05-13 03:56:00,,0824.1,4.99,0.00,29.3,28.5,00.0,38.4,30.9,06.1,0000.0,0007.95,0002.63,0001.09
2022-05-13 03:57:00,,0824.0,5.00,0.00,29.2,28.4,00.0,38.4,30.9,06.2,0000.0,0007.83,0002.64,0001.09
2022-05-13 03:58:00,,0824.1,5.00,0.00,29.2,28.4,00.0,38.4,30.9,06.2,0000.0,0007.72,0002.64,0001.09
2022-05-13 03:59:00,,0824.1,5.00,0.00,29.2,28.4,00.0,38.4,30.9,06.2,0000.0,0007.62,0002.62,0001.08
